Lafayette Regional Airport
KLFT : now visible

Airfield :











YOU CAN JOIN US ON...

 
LOGIN :

Register | Disclaimer

   EN    FR    IT 

 









Legend :    VFR   Marginal VFR   IFR   Intensive IFR   Very Intensive IFR
Visi :
Ceiling :
>= 8 km
>= 3000ft
5 to 8 km
1000 to 3000 ft
1500m to 5 km
500 to 1000 ft
800 to 1500m
200 to 500 ft
< 800m
< 200 ft
Symbols :   Thunderstorms  Fog  Heavy snow  Heavy precipitations  Wind > 20 kt






- Airport Elevation : 42 ft
- IATA code : LFT


KLFT - Lafayette Regional

CURRENT METAR :
  • 082153Z 00000KT 10SM CLR 18/11 A3001 RMK AO2 SLP162 T01780111

EXPIRED METARs :
  • 082053Z 07004KT 10SM CLR 18/11 A3002 RMK AO2 SLP164 T01780106 56021
  • 081953Z 05007KT 10SM SCT033 17/11 A3003 RMK AO2 SLP169 T01670106

TAF KLFT
Valid from the 08 at 20:00 until the 09 at 18:00 UTC


082010Z 0820/0918 04008KT P6SM SCT035
FM090400 VRB03KT P6SM BKN025
FM090700 11002KT 4SM BR BKN007
FM091000 VRB02KT 1SM BR OVC003
FM091600 18008KT P6SM BKN005
KZHU FIR / North America



MET'MAP, your aeronautical weather chart ! - Copyright ORBIFLY December 2007 - Disclaimer

ORBIFLY MET'MAP TEAM :

Programming & Development : Alexandra Zaïnal
Concept & original design : Baudouin d'Aumeries
Assistance for programming : Marc-Olivier Méhu
Technical & hardware support : Manuel Goepfert

Contact : metmap@orbifly.com




SOURCES & CREDITS :

   NOAA       Earth
Advisory